This is the latest recevied weather packets stored in our database for station/object DW9280. If no packets are shown the sender has not sent any weather packets the latest 1 day(s).
| Time | Temp. | Humidity | Pressure | Rain* | Wind** | Luminosity | Snow |
|---|---|---|---|---|---|---|---|
| 1778018587 | 10° C | 83% | 1010.5 hPa | 0 mm | 2.24 m/s, 355° | 0 W/m² | - |
| 1778018288 | 10° C | 84% | 1010.6 hPa | 0 mm | 1.79 m/s, 5° | 0 W/m² | - |
| 1778017986 | 10° C | 84% | 1010.6 hPa | 0 mm | 1.34 m/s, 23° | 0 W/m² | - |
| 1778017689 | 10° C | 84% | 1010.6 hPa | 0 mm | 1.34 m/s, 19° | 0 W/m² | - |
| 1778017389 | 10° C | 83% | 1010.7 hPa | 0 mm | 0.89 m/s, 34° | 0 W/m² | - |
| 1778017088 | 10° C | 83% | 1010.7 hPa | 0 mm | 0.89 m/s, 26° | 0 W/m² | - |
| 1778016786 | 10° C | 82% | 1010.7 hPa | 0 mm | 0.89 m/s, 35° | 0 W/m² | - |
| 1778016487 | 10° C | 82% | 1010.7 hPa | 0 mm | 1.34 m/s, 38° | 0 W/m² | - |
| 1778016186 | 10° C | 81% | 1010.7 hPa | 0 mm | 1.79 m/s, 28° | 0 W/m² | - |
| 1778015887 | 10° C | 80% | 1010.7 hPa | 0 mm | 1.79 m/s, 26° | 0 W/m² | - |
| 1778015586 | 10.56° C | 80% | 1010.6 hPa | 0 mm | 1.79 m/s, 47° | 0 W/m² | - |
| 1778015289 | 10.56° C | 79% | 1010.6 hPa | 0 mm | 1.79 m/s, 355° | 0 W/m² | - |
| 1778014987 | 10.56° C | 79% | 1010.6 hPa | 0 mm | 2.24 m/s, 32° | 0 W/m² | - |
| 1778014688 | 10.56° C | 78% | 1010.7 hPa | 0 mm | 2.24 m/s, 25° | 0 W/m² | - |
| 1778014386 | 10.56° C | 77% | 1010.8 hPa | 0 mm | 2.24 m/s, 24° | 0 W/m² | - |
| 1778014087 | 10.56° C | 77% | 1010.9 hPa | 0 mm | 2.24 m/s, 42° | 0 W/m² | - |
| 1778013788 | 10.56° C | 76% | 1010.9 hPa | 0 mm | 1.79 m/s, 41° | 0 W/m² | - |
| 1778013490 | 10.56° C | 75% | 1010.9 hPa | 0 mm | 1.79 m/s, 45° | 0 W/m² | - |
| 1778013186 | 10.56° C | 75% | 1010.9 hPa | 0 mm | 2.24 m/s, 42° | 0 W/m² | - |
| 1778012887 | 10.56° C | 74% | 1010.9 hPa | 0 mm | 2.24 m/s, 346° | 0 W/m² | - |
| 1778012589 | 10.56° C | 74% | 1010.9 hPa | 0 mm | 2.24 m/s, 18° | 0 W/m² | - |
| 1778012288 | 10.56° C | 75% | 1010.9 hPa | 0 mm | 1.79 m/s, 23° | 0 W/m² | - |
| 1778012113 | 10.56° C | 74% | 1010.8 hPa | 0 mm | 2.24 m/s, 11° | 0 W/m² | - |
| 1778011687 | 10.56° C | 74% | 1010.8 hPa | 0 mm | 2.24 m/s, 30° | 0 W/m² | - |
| 1778011388 | 10.56° C | 74% | 1010.8 hPa | 0 mm | 1.79 m/s, 18° | 0 W/m² | - |
* Rain latest hour (hover to see other rain measurements)
** Current wind speed in m/s (hover to see current wind gust speed)